182P/LONEOS (2022)

Japanese version
Home page
Updated on November 9, 2024

---------------------------------------------------------------------

* Profile

* Orbital Elements

Epoch 2024 Oct. 17.0 TT = JDT 2460600.5                                         
T 2022 May 12.54418 TT                                  Rudenko                 
q   0.9916777            (2000.0)            P               Q                  
n   0.19460703     Peri.   54.19167     -0.56617008     -0.78000478             
a   2.9491511      Node    72.46339     +0.63693333     -0.61923646             
e   0.6637413      Incl.   16.23228     +0.52322785     -0.09021505             
P   5.06                                                                        
From 204 observations 2001 Oct. 26-2016 Oct. 29, mean residual 0".7.            

* Magnitudes Graph

        H = 19.0  G = 0.15

---------------------------------------------------------------------

The orbital elements are published on M.P.E.C. 2024-U268.
The magnitudes graphs are made with Comet for Windows.

---------------------------------------------------------------------

Copyright(C) Seiichi Yoshida (comet@aerith.net). All rights reserved.